Time,TemperatureF,DewpointF,PressureIn,WindDirection,WindDirectionDegrees,WindSpeedMPH,WindSpeedGustMPH,Humidity,HourlyPrecipIn,Conditions,Clouds,dailyrainin,SoftwareType,DateUTC
2013-02-13 00:00:00,50.9,36.2,30.00,SSW,194,2.0,2.0,57,0.00,,---,0.00,VWS V14.01,2013-02-13 05:00:00,
2013-02-13 00:05:00,50.9,36.2,29.99,SSW,194,3.0,3.0,57,0.00,,---,0.00,VWS V14.01,2013-02-13 05:05:00,
2013-02-13 00:10:00,50.8,37.0,29.99,West,269,2.0,2.0,59,0.00,,---,0.00,VWS V14.01,2013-02-13 05:10:00,
2013-02-13 00:15:00,50.7,36.9,29.98,SSE,157,0.0,1.0,59,0.00,,---,0.00,VWS V14.01,2013-02-13 05:15:00,
2013-02-13 00:20:00,50.4,37.0,29.97,SSE,157,0.0,1.0,60,0.00,,---,0.00,VWS V14.01,2013-02-13 05:20:00,
2013-02-13 00:25:00,50.3,37.8,29.98,SSE,163,0.0,0.0,62,0.00,,---,0.00,VWS V14.01,2013-02-13 05:25:00,
2013-02-13 00:30:00,50.1,37.6,29.97,SSE,159,0.0,0.0,62,0.00,,---,0.00,VWS V14.01,2013-02-13 05:30:00,
2013-02-13 00:35:00,50.0,38.7,29.98,SSE,163,0.0,0.0,65,0.00,,---,0.00,VWS V14.01,2013-02-13 05:35:00,
2013-02-13 00:40:00,49.9,37.8,29.98,SSE,159,2.0,2.0,63,0.00,,---,0.00,VWS V14.01,2013-02-13 05:40:00,
2013-02-13 00:45:00,49.9,37.8,29.97,SSW,201,4.0,5.0,63,0.00,,---,0.00,VWS V14.01,2013-02-13 05:45:00,
2013-02-13 00:50:00,49.9,38.2,29.97,South,178,3.0,4.0,64,0.00,,---,0.00,VWS V14.01,2013-02-13 05:50:00,
2013-02-13 00:55:00,49.9,37.8,29.96,SSE,155,2.0,3.0,63,0.00,,---,0.00,VWS V14.01,2013-02-13 05:55:00,
2013-02-13 01:00:00,49.9,37.8,29.95,South,181,2.0,5.0,63,0.00,,---,0.00,VWS V14.01,2013-02-13 06:00:00,
2013-02-13 01:05:00,49.8,37.7,29.94,SSE,164,2.0,5.0,63,0.00,,---,0.00,VWS V14.01,2013-02-13 06:05:00,
2013-02-13 01:10:00,49.7,38.0,29.94,SSW,199,3.0,4.0,64,0.00,,---,0.00,VWS V14.01,2013-02-13 06:10:00,
2013-02-13 01:15:00,49.6,37.9,29.94,South,178,3.0,6.0,64,0.00,,---,0.00,VWS V14.01,2013-02-13 06:15:00,
2013-02-13 01:20:00,49.6,38.7,29.94,South,178,5.0,5.0,66,0.00,,---,0.00,VWS V14.01,2013-02-13 06:20:00,
2013-02-13 01:25:00,49.4,38.9,29.94,SSW,205,1.0,3.0,67,0.00,,---,0.00,VWS V14.01,2013-02-13 06:25:00,
2013-02-13 01:30:00,49.2,39.1,29.91,SSE,163,4.0,4.0,68,0.00,,---,0.00,VWS V14.01,2013-02-13 06:30:00,
2013-02-13 01:35:00,48.9,39.9,29.94,WSW,256,2.0,3.0,71,0.00,,---,0.00,VWS V14.01,2013-02-13 06:35:00,
2013-02-13 01:40:00,48.5,40.2,29.94,WSW,252,2.0,3.0,73,0.00,,---,0.00,VWS V14.01,2013-02-13 06:40:00,
2013-02-13 01:45:00,48.1,40.6,29.94,SSE,168,3.0,3.0,75,0.00,,---,0.00,VWS V14.01,2013-02-13 06:45:00,
2013-02-13 01:50:00,47.8,40.6,29.92,ESE,115,1.0,3.0,76,0.00,,---,0.00,VWS V14.01,2013-02-13 06:50:00,
2013-02-13 01:55:00,47.6,40.8,29.93,SSW,210,0.0,0.0,77,0.00,,---,0.00,VWS V14.01,2013-02-13 06:55:00,
2013-02-13 02:00:00,47.5,41.3,29.92,SSW,195,0.0,1.0,79,0.00,,---,0.00,VWS V14.01,2013-02-13 07:00:00,
2013-02-13 02:04:00,47.3,41.1,29.91,East,101,2.0,2.0,79,0.00,,---,0.00,VWS V14.01,2013-02-13 07:04:00,
2013-02-13 02:09:00,47.1,41.3,29.90,East,96,0.0,1.0,80,0.00,,---,0.00,VWS V14.01,2013-02-13 07:09:00,
2013-02-13 02:14:00,46.9,41.1,29.91,SSE,161,1.0,3.0,80,0.00,,---,0.00,VWS V14.01,2013-02-13 07:14:00,
2013-02-13 02:19:00,46.8,41.3,29.90,ESE,118,2.0,2.0,81,0.00,,---,0.00,VWS V14.01,2013-02-13 07:19:00,
2013-02-13 02:24:00,46.7,41.2,29.89,SE,128,2.0,2.0,81,0.00,,---,0.00,VWS V14.01,2013-02-13 07:24:00,
2013-02-13 02:29:00,46.6,41.4,29.90,ESE,121,0.0,1.0,82,0.00,,---,0.00,VWS V14.01,2013-02-13 07:29:00,
2013-02-13 02:34:00,46.5,41.3,29.89,SE,137,2.0,2.0,82,0.00,,---,0.00,VWS V14.01,2013-02-13 07:34:00,
2013-02-13 02:39:00,46.4,41.2,29.89,SSE,168,1.0,1.0,82,0.00,,---,0.00,VWS V14.01,2013-02-13 07:39:00,
2013-02-13 02:44:00,46.4,41.5,29.90,SW,236,0.0,1.0,83,0.00,,---,0.00,VWS V14.01,2013-02-13 07:44:00,
2013-02-13 02:49:00,46.5,41.6,29.90,SSE,154,2.0,3.0,83,0.00,,---,0.00,VWS V14.01,2013-02-13 07:49:00,
2013-02-13 02:54:00,46.5,41.6,29.89,SE,128,1.0,1.0,83,0.00,,---,0.00,VWS V14.01,2013-02-13 07:54:00,
2013-02-13 02:59:00,46.5,41.6,29.89,SSE,148,0.0,0.0,83,0.00,,---,0.00,VWS V14.01,2013-02-13 07:59:00,
2013-02-13 03:04:00,46.5,41.6,29.90,SSW,202,1.0,3.0,83,0.00,,---,0.00,VWS V14.01,2013-02-13 08:04:00,
2013-02-13 03:09:00,46.6,42.0,29.90,SSE,161,0.0,2.0,84,0.00,,---,0.00,VWS V14.01,2013-02-13 08:09:00,
2013-02-13 03:14:00,46.7,42.1,29.89,South,175,0.0,0.0,84,0.00,,---,0.00,VWS V14.01,2013-02-13 08:14:00,
2013-02-13 03:19:00,46.7,42.1,29.90,SSE,168,0.0,0.0,84,0.00,,---,0.00,VWS V14.01,2013-02-13 08:19:00,
2013-02-13 03:24:00,46.7,42.1,29.88,ESE,102,1.0,2.0,84,0.00,,---,0.00,VWS V14.01,2013-02-13 08:24:00,
2013-02-13 03:29:00,46.7,42.1,29.89,North,360,3.0,3.0,84,0.00,,---,0.00,VWS V14.01,2013-02-13 08:29:00,
2013-02-13 03:34:00,46.8,42.5,29.90,NW,321,0.0,0.0,85,0.00,,---,0.00,VWS V14.01,2013-02-13 08:34:00,
2013-02-13 03:39:00,46.8,42.2,29.90,NNW,335,0.0,0.0,84,0.01,,---,0.01,VWS V14.01,2013-02-13 08:39:00,
2013-02-13 03:44:00,46.8,42.5,29.90,NNW,335,0.0,0.0,85,0.01,,---,0.01,VWS V14.01,2013-02-13 08:44:00,
2013-02-13 03:49:00,46.6,42.6,29.89,NE,53,0.0,0.0,86,0.02,,---,0.02,VWS V14.01,2013-02-13 08:49:00,
2013-02-13 03:54:00,46.5,42.5,29.89,SSE,163,1.0,1.0,86,0.02,,---,0.02,VWS V14.01,2013-02-13 08:54:00,
2013-02-13 03:59:00,46.2,42.8,29.88,SE,126,0.0,0.0,88,0.04,,---,0.04,VWS V14.01,2013-02-13 08:59:00,
2013-02-13 04:04:00,45.9,42.8,29.88,SE,125,0.0,0.0,89,0.05,,---,0.05,VWS V14.01,2013-02-13 09:04:00,
2013-02-13 04:09:00,45.7,42.7,29.88,SE,126,0.0,0.0,89,0.05,,---,0.05,VWS V14.01,2013-02-13 09:09:00,
2013-02-13 04:14:00,45.7,42.9,29.86,ENE,65,3.0,3.0,90,0.05,,---,0.05,VWS V14.01,2013-02-13 09:14:00,
2013-02-13 04:19:00,45.6,42.8,29.85,ENE,68,4.0,5.0,90,0.05,,---,0.05,VWS V14.01,2013-02-13 09:19:00,
2013-02-13 04:24:00,45.4,42.9,29.85,ENE,57,2.0,2.0,91,0.05,,---,0.05,VWS V14.01,2013-02-13 09:24:00,
2013-02-13 04:29:00,45.4,42.9,29.85,ENE,58,1.0,1.0,91,0.05,,---,0.05,VWS V14.01,2013-02-13 09:29:00,
2013-02-13 04:34:00,45.3,42.8,29.85,NE,55,2.0,2.0,91,0.05,,---,0.05,VWS V14.01,2013-02-13 09:34:00,
2013-02-13 04:39:00,45.4,42.9,29.85,NE,54,2.0,2.0,91,0.04,,---,0.05,VWS V14.01,2013-02-13 09:39:00,
2013-02-13 04:44:00,45.3,42.8,29.85,NE,51,1.0,1.0,91,0.04,,---,0.05,VWS V14.01,2013-02-13 09:44:00,
2013-02-13 04:49:00,45.3,42.8,29.85,ENE,73,1.0,1.0,91,0.03,,---,0.05,VWS V14.01,2013-02-13 09:49:00,
2013-02-13 04:54:00,45.3,42.8,29.85,East,101,0.0,0.0,91,0.03,,---,0.05,VWS V14.01,2013-02-13 09:54:00,
2013-02-13 04:59:00,45.4,42.9,29.85,East,101,0.0,0.0,91,0.02,,---,0.05,VWS V14.01,2013-02-13 09:59:00,
2013-02-13 05:04:00,45.5,43.3,29.87,WNW,296,0.0,0.0,92,0.00,,---,0.05,VWS V14.01,2013-02-13 10:04:00,
2013-02-13 05:09:00,45.4,42.9,29.85,NNE,26,2.0,2.0,91,0.00,,---,0.05,VWS V14.01,2013-02-13 10:09:00,
2013-02-13 05:14:00,45.4,43.2,29.85,ENE,57,1.0,1.0,92,0.00,,---,0.05,VWS V14.01,2013-02-13 10:14:00,
2013-02-13 05:19:00,45.3,43.1,29.85,NE,55,0.0,0.0,92,0.00,,---,0.05,VWS V14.01,2013-02-13 10:19:00,
2013-02-13 05:24:00,45.4,43.2,29.86,NNW,334,0.0,0.0,92,0.01,,---,0.06,VWS V14.01,2013-02-13 10:24:00,
2013-02-13 05:29:00,45.4,43.2,29.87,NNW,334,1.0,1.0,92,0.01,,---,0.06,VWS V14.01,2013-02-13 10:29:00,
2013-02-13 05:34:00,45.3,43.1,29.86,NNW,334,0.0,0.0,92,0.01,,---,0.06,VWS V14.01,2013-02-13 10:34:00,
2013-02-13 05:39:00,45.2,43.0,29.86,NNE,31,0.0,0.0,92,0.02,,---,0.07,VWS V14.01,2013-02-13 10:39:00,
2013-02-13 05:44:00,45.1,42.9,29.86,NE,49,2.0,2.0,92,0.02,,---,0.07,VWS V14.01,2013-02-13 10:44:00,
2013-02-13 05:49:00,45.1,42.9,29.86,ENE,74,1.0,1.0,92,0.02,,---,0.07,VWS V14.01,2013-02-13 10:49:00,
2013-02-13 05:54:00,45.1,42.9,29.86,ENE,74,1.0,1.0,92,0.02,,---,0.07,VWS V14.01,2013-02-13 10:54:00,
2013-02-13 05:59:00,45.0,42.8,29.85,NE,53,1.0,2.0,92,0.02,,---,0.07,VWS V14.01,2013-02-13 10:59:00,
2013-02-13 06:04:00,44.9,42.4,29.85,ENE,73,3.0,3.0,91,0.02,,---,0.07,VWS V14.01,2013-02-13 11:04:00,
2013-02-13 06:09:00,44.9,42.2,29.85,ENE,68,3.0,3.0,90,0.02,,---,0.07,VWS V14.01,2013-02-13 11:09:00,
2013-02-13 06:14:00,44.8,42.0,29.85,ENE,67,2.0,2.0,90,0.02,,---,0.07,VWS V14.01,2013-02-13 11:14:00,
2013-02-13 06:19:00,44.8,42.0,29.86,ENE,67,1.0,2.0,90,0.02,,---,0.07,VWS V14.01,2013-02-13 11:19:00,
2013-02-13 06:24:00,44.8,42.0,29.86,ENE,67,0.0,0.0,90,0.01,,---,0.07,VWS V14.01,2013-02-13 11:24:00,
2013-02-13 06:29:00,44.7,42.0,29.86,ENE,67,1.0,1.0,90,0.01,,---,0.07,VWS V14.01,2013-02-13 11:29:00,
2013-02-13 06:34:00,44.7,42.2,29.86,NE,47,2.0,2.0,91,0.01,,---,0.07,VWS V14.01,2013-02-13 11:34:00,
2013-02-13 06:39:00,44.7,42.2,29.86,NE,44,2.0,2.0,91,0.00,,---,0.07,VWS V14.01,2013-02-13 11:39:00,
2013-02-13 06:44:00,44.7,42.5,29.87,NE,48,2.0,2.0,92,0.00,,---,0.07,VWS V14.01,2013-02-13 11:44:00,
2013-02-13 06:49:00,44.7,42.5,29.87,NNE,26,2.0,2.0,92,0.00,,---,0.07,VWS V14.01,2013-02-13 11:49:00,
2013-02-13 06:54:00,44.7,42.8,29.86,ENE,67,2.0,3.0,93,0.00,,---,0.07,VWS V14.01,2013-02-13 11:54:00,
2013-02-13 06:59:00,44.6,42.7,29.86,ENE,66,1.0,1.0,93,0.00,,---,0.07,VWS V14.01,2013-02-13 11:59:00,
2013-02-13 07:04:00,44.5,42.6,29.86,NE,42,3.0,4.0,93,0.00,,---,0.07,VWS V14.01,2013-02-13 12:04:00,
2013-02-13 07:09:00,44.4,42.2,29.87,East,79,1.0,1.0,92,0.00,,---,0.07,VWS V14.01,2013-02-13 12:09:00,
2013-02-13 07:14:00,44.4,42.2,29.87,ENE,62,1.0,2.0,92,0.00,,---,0.07,VWS V14.01,2013-02-13 12:14:00,
2013-02-13 07:19:00,44.4,42.2,29.87,ENE,76,2.0,2.0,92,0.00,,---,0.07,VWS V14.01,2013-02-13 12:19:00,
2013-02-13 07:24:00,44.4,42.2,29.87,NE,46,1.0,2.0,92,0.00,,---,0.07,VWS V14.01,2013-02-13 12:24:00,
2013-02-13 07:29:00,44.3,42.1,29.88,NE,43,2.0,2.0,92,0.00,,---,0.07,VWS V14.01,2013-02-13 12:29:00,
2013-02-13 07:34:00,44.4,42.5,29.86,ENE,78,2.0,2.0,93,0.00,,---,0.07,VWS V14.01,2013-02-13 12:34:00,
2013-02-13 07:39:00,44.3,42.4,29.86,East,84,5.0,5.0,93,0.00,,---,0.07,VWS V14.01,2013-02-13 12:39:00,
2013-02-13 07:44:00,44.3,42.4,29.85,East,79,3.0,5.0,93,0.00,,---,0.07,VWS V14.01,2013-02-13 12:44:00,
2013-02-13 07:49:00,44.3,42.4,29.86,ENE,66,1.0,2.0,93,0.00,,---,0.07,VWS V14.01,2013-02-13 12:49:00,
2013-02-13 07:54:00,44.3,42.7,29.86,ENE,77,3.0,6.0,94,0.00,,---,0.07,VWS V14.01,2013-02-13 12:54:00,
2013-02-13 07:59:00,44.3,42.7,29.85,ENE,77,4.0,5.0,94,0.00,,---,0.07,VWS V14.01,2013-02-13 12:59:00,
2013-02-13 08:04:00,44.2,42.6,29.85,East,86,3.0,5.0,94,0.00,,---,0.07,VWS V14.01,2013-02-13 13:04:00,
2013-02-13 08:09:00,44.2,42.6,29.85,East,98,3.0,3.0,94,0.00,,---,0.07,VWS V14.01,2013-02-13 13:09:00,
2013-02-13 08:14:00,44.2,42.6,29.86,ENE,75,4.0,5.0,94,0.00,,---,0.07,VWS V14.01,2013-02-13 13:14:00,
2013-02-13 08:19:00,44.2,42.6,29.87,ENE,75,2.0,6.0,94,0.00,,---,0.07,VWS V14.01,2013-02-13 13:19:00,
2013-02-13 08:24:00,44.3,42.7,29.87,ENE,66,3.0,4.0,94,0.00,,---,0.07,VWS V14.01,2013-02-13 13:24:00,
2013-02-13 08:29:00,44.3,42.7,29.85,East,81,5.0,5.0,94,0.00,,---,0.07,VWS V14.01,2013-02-13 13:29:00,
2013-02-13 08:34:00,44.3,42.7,29.87,ENE,71,2.0,4.0,94,0.00,,---,0.07,VWS V14.01,2013-02-13 13:34:00,
2013-02-13 08:38:00,44.3,43.0,29.87,East,91,2.0,3.0,95,0.00,,---,0.07,VWS V14.01,2013-02-13 13:38:00,
2013-02-13 08:43:00,44.4,43.1,29.87,ESE,105,4.0,4.0,95,0.00,,---,0.07,VWS V14.01,2013-02-13 13:43:00,
2013-02-13 08:48:00,44.5,43.2,29.87,ENE,62,2.0,3.0,95,0.00,,---,0.07,VWS V14.01,2013-02-13 13:48:00,
2013-02-13 08:53:00,44.5,43.2,29.88,ENE,78,0.0,2.0,95,0.00,,---,0.07,VWS V14.01,2013-02-13 13:53:00,
2013-02-13 08:58:00,44.5,43.2,29.87,ENE,78,3.0,3.0,95,0.00,,---,0.07,VWS V14.01,2013-02-13 13:58:00,
2013-02-13 09:03:00,44.6,43.3,29.87,ENE,60,3.0,3.0,95,0.00,,---,0.07,VWS V14.01,2013-02-13 14:03:00,
2013-02-13 09:08:00,44.6,43.3,29.86,ENE,69,4.0,5.0,95,0.00,,---,0.07,VWS V14.01,2013-02-13 14:08:00,
2013-02-13 09:13:00,44.6,43.3,29.85,ENE,67,3.0,3.0,95,0.00,,---,0.07,VWS V14.01,2013-02-13 14:13:00,
2013-02-13 09:18:00,44.7,43.4,29.83,East,96,3.0,6.0,95,0.00,,---,0.07,VWS V14.01,2013-02-13 14:18:00,
2013-02-13 09:23:00,44.7,43.4,29.83,East,81,6.0,6.0,95,0.00,,---,0.07,VWS V14.01,2013-02-13 14:23:00,
2013-02-13 09:28:00,44.7,43.4,29.83,ENE,76,3.0,3.0,95,0.00,,---,0.07,VWS V14.01,2013-02-13 14:28:00,
2013-02-13 09:33:00,44.7,43.4,29.84,ENE,71,3.0,5.0,95,0.00,,---,0.07,VWS V14.01,2013-02-13 14:33:00,
2013-02-13 09:38:00,44.8,43.5,29.84,ENE,71,4.0,4.0,95,0.00,,---,0.07,VWS V14.01,2013-02-13 14:38:00,
2013-02-13 09:43:00,44.8,43.5,29.83,ENE,66,5.0,7.0,95,0.00,,---,0.07,VWS V14.01,2013-02-13 14:43:00,
2013-02-13 09:48:00,44.8,43.5,29.83,ESE,107,3.0,3.0,95,0.00,,---,0.07,VWS V14.01,2013-02-13 14:48:00,
2013-02-13 09:53:00,44.9,43.6,29.82,East,82,5.0,6.0,95,0.00,,---,0.07,VWS V14.01,2013-02-13 14:53:00,
2013-02-13 09:58:00,44.9,43.6,29.82,East,84,6.0,6.0,95,0.00,,---,0.07,VWS V14.01,2013-02-13 14:58:00,
2013-02-13 10:03:00,44.9,43.6,29.82,ENE,64,1.0,2.0,95,0.00,,---,0.07,VWS V14.01,2013-02-13 15:03:00,
2013-02-13 10:08:00,44.9,43.6,29.82,ENE,60,4.0,4.0,95,0.00,,---,0.07,VWS V14.01,2013-02-13 15:08:00,
2013-02-13 10:13:00,45.0,43.7,29.82,East,88,6.0,7.0,95,0.00,,---,0.07,VWS V14.01,2013-02-13 15:13:00,
2013-02-13 10:18:00,45.1,43.8,29.84,ENE,78,2.0,4.0,95,0.00,,---,0.07,VWS V14.01,2013-02-13 15:18:00,
2013-02-13 10:23:00,45.1,43.8,29.82,East,86,5.0,5.0,95,0.00,,---,0.07,VWS V14.01,2013-02-13 15:23:00,
2013-02-13 10:28:00,45.1,43.8,29.79,East,84,7.0,8.0,95,0.00,,---,0.07,VWS V14.01,2013-02-13 15:28:00,
2013-02-13 10:33:00,45.2,43.9,29.83,WNW,300,0.0,0.0,95,0.00,,---,0.07,VWS V14.01,2013-02-13 15:33:00,
2013-02-13 10:38:00,45.3,44.0,29.83,ENE,61,2.0,2.0,95,0.00,,---,0.07,VWS V14.01,2013-02-13 15:38:00,
2013-02-13 10:43:00,45.3,44.0,29.83,ENE,78,4.0,4.0,95,0.00,,---,0.07,VWS V14.01,2013-02-13 15:43:00,
2013-02-13 10:48:00,45.2,43.9,29.81,East,95,3.0,3.0,95,0.00,,---,0.07,VWS V14.01,2013-02-13 15:48:00,
2013-02-13 10:53:00,45.2,43.9,29.82,ENE,69,1.0,2.0,95,0.00,,---,0.07,VWS V14.01,2013-02-13 15:53:00,
2013-02-13 10:58:00,45.3,44.0,29.82,East,79,3.0,3.0,95,0.00,,---,0.07,VWS V14.01,2013-02-13 15:58:00,
2013-02-13 11:03:00,45.3,44.0,29.81,East,100,2.0,3.0,95,0.00,,---,0.07,VWS V14.01,2013-02-13 16:03:00,
2013-02-13 11:08:00,45.4,44.0,29.80,East,80,1.0,2.0,95,0.00,,---,0.07,VWS V14.01,2013-02-13 16:08:00,
2013-02-13 11:13:00,45.4,44.0,29.81,ENE,76,0.0,0.0,95,0.00,,---,0.07,VWS V14.01,2013-02-13 16:13:00,
2013-02-13 11:18:00,45.4,44.0,29.81,NE,43,4.0,4.0,95,0.00,,---,0.07,VWS V14.01,2013-02-13 16:18:00,
2013-02-13 11:23:00,45.4,44.0,29.80,NE,36,1.0,1.0,95,0.00,,---,0.07,VWS V14.01,2013-02-13 16:23:00,
2013-02-13 11:28:00,45.5,44.2,29.80,ENE,78,4.0,5.0,95,0.00,,---,0.07,VWS V14.01,2013-02-13 16:28:00,
2013-02-13 11:33:00,45.4,44.0,29.78,East,100,7.0,8.0,95,0.00,,---,0.07,VWS V14.01,2013-02-13 16:33:00,
2013-02-13 11:38:00,45.5,44.2,29.77,East,85,3.0,3.0,95,0.00,,---,0.07,VWS V14.01,2013-02-13 16:38:00,
2013-02-13 11:43:00,45.6,44.2,29.78,East,82,6.0,6.0,95,0.00,,---,0.07,VWS V14.01,2013-02-13 16:43:00,
2013-02-13 11:48:00,45.6,44.2,29.76,ESE,104,2.0,3.0,95,0.00,,---,0.07,VWS V14.01,2013-02-13 16:48:00,
2013-02-13 11:53:00,45.7,44.3,29.75,ENE,77,5.0,5.0,95,0.00,,---,0.07,VWS V14.01,2013-02-13 16:53:00,
2013-02-13 11:58:00,45.6,44.2,29.76,East,101,2.0,2.0,95,0.00,,---,0.07,VWS V14.01,2013-02-13 16:58:00,
2013-02-13 12:03:00,45.5,44.2,29.78,East,98,5.0,5.0,95,0.00,,---,0.07,VWS V14.01,2013-02-13 17:03:00,
2013-02-13 12:08:00,45.6,44.2,29.76,East,82,5.0,5.0,95,0.00,,---,0.07,VWS V14.01,2013-02-13 17:08:00,
2013-02-13 12:13:00,45.7,44.6,29.76,NE,53,3.0,3.0,96,0.00,,---,0.07,VWS V14.01,2013-02-13 17:13:00,
2013-02-13 12:18:00,45.8,44.5,29.75,East,100,3.0,3.0,95,0.00,,---,0.07,VWS V14.01,2013-02-13 17:18:00,
2013-02-13 12:23:00,45.9,44.8,29.75,ENE,78,2.0,2.0,96,0.00,,---,0.07,VWS V14.01,2013-02-13 17:23:00,
2013-02-13 12:28:00,45.8,44.5,29.73,ESE,111,5.0,5.0,95,0.00,,---,0.07,VWS V14.01,2013-02-13 17:28:00,
2013-02-13 12:33:00,45.9,44.8,29.75,ENE,77,3.0,3.0,96,0.00,,---,0.07,VWS V14.01,2013-02-13 17:33:00,
2013-02-13 12:38:00,45.9,44.5,29.71,ESE,117,1.0,1.0,95,0.00,,---,0.07,VWS V14.01,2013-02-13 17:38:00,
2013-02-13 12:43:00,46.1,45.0,29.73,East,86,5.0,5.0,96,0.00,,---,0.07,VWS V14.01,2013-02-13 17:43:00,
2013-02-13 12:48:00,46.1,45.0,29.73,SW,236,4.0,4.0,96,0.00,,---,0.07,VWS V14.01,2013-02-13 17:48:00,
2013-02-13 12:53:00,45.9,44.5,29.74,SSE,159,1.0,1.0,95,0.00,,---,0.07,VWS V14.01,2013-02-13 17:53:00,
2013-02-13 12:58:00,46.0,44.7,29.72,East,92,3.0,3.0,95,0.00,,---,0.07,VWS V14.01,2013-02-13 17:58:00,
2013-02-13 13:03:00,46.1,44.8,29.72,East,90,3.0,3.0,95,0.00,,---,0.07,VWS V14.01,2013-02-13 18:03:00,
2013-02-13 13:08:00,46.1,44.8,29.73,SSW,201,1.0,2.0,95,0.00,,---,0.07,VWS V14.01,2013-02-13 18:08:00,
2013-02-13 13:13:00,46.1,44.8,29.70,SSE,159,2.0,3.0,95,0.00,,---,0.07,VWS V14.01,2013-02-13 18:13:00,
2013-02-13 13:18:00,46.3,45.2,29.71,SSE,149,0.0,0.0,96,0.00,,---,0.07,VWS V14.01,2013-02-13 18:18:00,
2013-02-13 13:23:00,46.2,45.1,29.71,East,97,2.0,2.0,96,0.00,,---,0.07,VWS V14.01,2013-02-13 18:23:00,
2013-02-13 13:28:00,46.3,45.2,29.70,SE,130,2.0,2.0,96,0.00,,---,0.07,VWS V14.01,2013-02-13 18:28:00,
2013-02-13 13:33:00,46.3,45.2,29.69,ESE,109,3.0,4.0,96,0.00,,---,0.07,VWS V14.01,2013-02-13 18:33:00,
2013-02-13 13:38:00,46.3,45.2,29.69,ESE,109,4.0,6.0,96,0.00,,---,0.07,VWS V14.01,2013-02-13 18:38:00,
2013-02-13 13:43:00,46.3,45.2,29.69,ESE,117,1.0,1.0,96,0.00,,---,0.07,VWS V14.01,2013-02-13 18:43:00,
2013-02-13 13:48:00,46.4,45.3,29.70,ESE,107,1.0,1.0,96,0.00,,---,0.07,VWS V14.01,2013-02-13 18:48:00,
2013-02-13 13:53:00,46.5,45.4,29.69,East,83,1.0,1.0,96,0.00,,---,0.07,VWS V14.01,2013-02-13 18:53:00,
2013-02-13 13:58:00,46.6,45.5,29.67,SE,142,1.0,2.0,96,0.00,,---,0.07,VWS V14.01,2013-02-13 18:58:00,
2013-02-13 14:03:00,46.7,45.6,29.70,SSW,194,1.0,2.0,96,0.00,,---,0.07,VWS V14.01,2013-02-13 19:03:00,
2013-02-13 14:08:00,46.7,45.6,29.70,SSW,209,1.0,1.0,96,0.01,,---,0.08,VWS V14.01,2013-02-13 19:08:00,
2013-02-13 14:13:00,46.6,45.5,29.68,SE,142,1.0,2.0,96,0.01,,---,0.08,VWS V14.01,2013-02-13 19:13:00,
2013-02-13 14:18:00,46.7,45.6,29.67,SE,146,3.0,3.0,96,0.01,,---,0.08,VWS V14.01,2013-02-13 19:18:00,
2013-02-13 14:23:00,46.9,45.8,29.68,WSW,249,3.0,4.0,96,0.01,,---,0.08,VWS V14.01,2013-02-13 19:23:00,
2013-02-13 14:28:00,46.9,45.8,29.69,SSE,155,2.0,3.0,96,0.01,,---,0.08,VWS V14.01,2013-02-13 19:28:00,
2013-02-13 14:33:00,46.9,45.8,29.68,SW,214,0.0,2.0,96,0.01,,---,0.08,VWS V14.01,2013-02-13 19:33:00,
2013-02-13 14:38:00,46.9,45.8,29.69,SSW,213,1.0,2.0,96,0.01,,---,0.08,VWS V14.01,2013-02-13 19:38:00,
2013-02-13 14:43:00,46.9,45.8,29.68,SSE,159,2.0,3.0,96,0.01,,---,0.08,VWS V14.01,2013-02-13 19:43:00,
2013-02-13 14:48:00,47.0,45.9,29.69,SSW,203,1.0,4.0,96,0.01,,---,0.08,VWS V14.01,2013-02-13 19:48:00,
2013-02-13 14:53:00,46.9,45.8,29.69,SW,235,3.0,4.0,96,0.01,,---,0.08,VWS V14.01,2013-02-13 19:53:00,
2013-02-13 14:58:00,46.9,45.8,29.69,West,260,3.0,3.0,96,0.01,,---,0.08,VWS V14.01,2013-02-13 19:58:00,
2013-02-13 15:03:00,47.0,45.9,29.69,WNW,288,1.0,1.0,96,0.01,,---,0.08,VWS V14.01,2013-02-13 20:03:00,
2013-02-13 15:08:00,47.1,46.0,29.68,South,190,1.0,1.0,96,0.00,,---,0.08,VWS V14.01,2013-02-13 20:08:00,
2013-02-13 15:12:00,47.1,46.0,29.68,WSW,246,2.0,2.0,96,0.00,,---,0.08,VWS V14.01,2013-02-13 20:12:00,
2013-02-13 15:17:00,47.1,46.0,29.68,WSW,252,2.0,3.0,96,0.00,,---,0.08,VWS V14.01,2013-02-13 20:17:00,
2013-02-13 15:22:00,47.3,46.2,29.68,WSW,242,3.0,3.0,96,0.00,,---,0.08,VWS V14.01,2013-02-13 20:22:00,
2013-02-13 15:27:00,47.3,46.2,29.67,South,191,4.0,4.0,96,0.00,,---,0.08,VWS V14.01,2013-02-13 20:27:00,
2013-02-13 15:32:00,47.4,46.3,29.67,SSE,165,5.0,6.0,96,0.00,,---,0.08,VWS V14.01,2013-02-13 20:32:00,
2013-02-13 15:37:00,47.5,46.4,29.68,SW,221,3.0,3.0,96,0.00,,---,0.08,VWS V14.01,2013-02-13 20:37:00,
2013-02-13 15:42:00,47.5,46.4,29.69,SW,233,4.0,5.0,96,0.00,,---,0.08,VWS V14.01,2013-02-13 20:42:00,
2013-02-13 15:47:00,47.6,46.5,29.68,SW,226,2.0,2.0,96,0.00,,---,0.08,VWS V14.01,2013-02-13 20:47:00,
2013-02-13 15:52:00,47.7,46.6,29.69,WSW,242,2.0,4.0,96,0.00,,---,0.08,VWS V14.01,2013-02-13 20:52:00,
2013-02-13 15:57:00,47.7,46.6,29.70,WSW,246,1.0,2.0,96,0.00,,---,0.08,VWS V14.01,2013-02-13 20:57:00,
2013-02-13 16:02:00,47.7,46.6,29.70,SW,233,5.0,5.0,96,0.00,,---,0.08,VWS V14.01,2013-02-13 21:02:00,
2013-02-13 16:07:00,47.7,46.6,29.69,WNW,284,4.0,4.0,96,0.00,,---,0.08,VWS V14.01,2013-02-13 21:07:00,
2013-02-13 16:12:00,47.7,46.6,29.69,WSW,252,0.0,2.0,96,0.00,,---,0.08,VWS V14.01,2013-02-13 21:12:00,
2013-02-13 16:17:00,47.7,46.6,29.68,WSW,242,3.0,4.0,96,0.00,,---,0.08,VWS V14.01,2013-02-13 21:17:00,
2013-02-13 16:22:00,47.7,46.6,29.69,SW,233,3.0,5.0,96,0.00,,---,0.08,VWS V14.01,2013-02-13 21:22:00,
2013-02-13 16:27:00,47.7,46.6,29.68,WSW,252,1.0,3.0,96,0.00,,---,0.08,VWS V14.01,2013-02-13 21:27:00,
2013-02-13 16:32:00,47.7,46.6,29.68,WNW,290,2.0,2.0,96,0.00,,---,0.08,VWS V14.01,2013-02-13 21:32:00,
2013-02-13 16:37:00,47.8,46.7,29.70,West,261,4.0,5.0,96,0.01,,---,0.09,VWS V14.01,2013-02-13 21:37:00,
2013-02-13 16:42:00,47.8,46.7,29.69,West,265,1.0,2.0,96,0.01,,---,0.09,VWS V14.01,2013-02-13 21:42:00,
2013-02-13 16:47:00,47.8,46.7,29.69,West,279,2.0,4.0,96,0.01,,---,0.09,VWS V14.01,2013-02-13 21:47:00,
2013-02-13 16:52:00,47.9,46.8,29.69,West,271,2.0,2.0,96,0.01,,---,0.09,VWS V14.01,2013-02-13 21:52:00,
2013-02-13 16:57:00,47.9,46.8,29.69,West,260,4.0,4.0,96,0.01,,---,0.09,VWS V14.01,2013-02-13 21:57:00,
2013-02-13 17:02:00,47.9,46.8,29.69,SSW,209,2.0,6.0,96,0.01,,---,0.09,VWS V14.01,2013-02-13 22:02:00,
2013-02-13 17:07:00,47.9,46.8,29.69,WSW,245,5.0,5.0,96,0.01,,---,0.09,VWS V14.01,2013-02-13 22:07:00,
2013-02-13 17:12:00,48.0,46.9,29.69,WSW,242,5.0,7.0,96,0.01,,---,0.09,VWS V14.01,2013-02-13 22:12:00,
2013-02-13 17:17:00,48.0,46.9,29.69,WSW,257,3.0,4.0,96,0.01,,---,0.09,VWS V14.01,2013-02-13 22:17:00,
2013-02-13 17:22:00,48.0,46.9,29.71,West,272,6.0,10.0,96,0.01,,---,0.09,VWS V14.01,2013-02-13 22:22:00,
2013-02-13 17:27:00,48.1,47.0,29.71,WSW,246,4.0,5.0,96,0.01,,---,0.09,VWS V14.01,2013-02-13 22:27:00,
2013-02-13 17:32:00,48.1,47.0,29.69,SW,227,2.0,2.0,96,0.01,,---,0.09,VWS V14.01,2013-02-13 22:32:00,
2013-02-13 17:37:00,48.1,47.0,29.69,WNW,290,3.0,5.0,96,0.00,,---,0.09,VWS V14.01,2013-02-13 22:37:00,
2013-02-13 17:42:00,48.2,47.1,29.70,WNW,300,3.0,6.0,96,0.00,,---,0.09,VWS V14.01,2013-02-13 22:42:00,
2013-02-13 17:47:00,48.1,47.0,29.70,West,271,2.0,5.0,96,0.00,,---,0.09,VWS V14.01,2013-02-13 22:47:00,
2013-02-13 17:52:00,48.2,47.1,29.71,West,277,6.0,6.0,96,0.00,,---,0.09,VWS V14.01,2013-02-13 22:52:00,
2013-02-13 17:57:00,48.1,47.0,29.70,WSW,257,6.0,10.0,96,0.00,,---,0.09,VWS V14.01,2013-02-13 22:57:00,
2013-02-13 18:02:00,48.2,47.1,29.72,WSW,249,4.0,5.0,96,0.00,,---,0.09,VWS V14.01,2013-02-13 23:02:00,
2013-02-13 18:07:00,48.2,47.1,29.72,WNW,282,6.0,7.0,96,0.00,,---,0.09,VWS V14.01,2013-02-13 23:07:00,
2013-02-13 18:12:00,48.2,47.1,29.73,West,275,6.0,8.0,96,0.00,,---,0.09,VWS V14.01,2013-02-13 23:12:00,
2013-02-13 18:17:00,48.3,47.2,29.73,West,268,4.0,6.0,96,0.00,,---,0.09,VWS V14.01,2013-02-13 23:17:00,
2013-02-13 18:22:00,48.3,46.9,29.74,West,279,3.0,6.0,95,0.00,,---,0.09,VWS V14.01,2013-02-13 23:22:00,
2013-02-13 18:27:00,48.3,46.9,29.73,WNW,286,6.0,7.0,95,0.00,,---,0.09,VWS V14.01,2013-02-13 23:27:00,
2013-02-13 18:32:00,48.3,46.9,29.73,SW,232,5.0,6.0,95,0.00,,---,0.09,VWS V14.01,2013-02-13 23:32:00,
2013-02-13 18:37:00,48.3,46.9,29.73,West,265,6.0,9.0,95,0.00,,---,0.09,VWS V14.01,2013-02-13 23:37:00,
2013-02-13 18:42:00,48.3,46.9,29.73,WNW,286,4.0,13.0,95,0.00,,---,0.09,VWS V14.01,2013-02-13 23:42:00,
2013-02-13 18:47:00,48.3,46.7,29.74,WNW,290,5.0,7.0,94,0.00,,---,0.09,VWS V14.01,2013-02-13 23:47:00,
2013-02-13 18:52:00,48.3,46.7,29.73,WNW,300,5.0,6.0,94,0.00,,---,0.09,VWS V14.01,2013-02-13 23:52:00,
2013-02-13 18:57:00,48.3,46.7,29.73,WNW,288,7.0,9.0,94,0.00,,---,0.09,VWS V14.01,2013-02-13 23:57:00,
2013-02-13 19:02:00,48.3,46.7,29.74,West,281,5.0,9.0,94,0.00,,---,0.09,VWS V14.01,2013-02-14 00:02:00,
2013-02-13 19:07:00,48.4,46.8,29.74,West,275,6.0,8.0,94,0.00,,---,0.09,VWS V14.01,2013-02-14 00:07:00,
2013-02-13 19:12:00,48.5,46.6,29.74,WSW,250,11.0,11.0,93,0.00,,---,0.09,VWS V14.01,2013-02-14 00:12:00,
2013-02-13 19:17:00,48.5,46.6,29.74,WSW,256,8.0,8.0,93,0.00,,---,0.09,VWS V14.01,2013-02-14 00:17:00,
2013-02-13 19:22:00,48.5,46.6,29.74,WSW,245,10.0,10.0,93,0.00,,---,0.09,VWS V14.01,2013-02-14 00:22:00,
2013-02-13 19:27:00,48.4,46.5,29.74,West,280,6.0,6.0,93,0.00,,---,0.09,VWS V14.01,2013-02-14 00:27:00,
2013-02-13 19:32:00,48.4,46.5,29.73,West,259,4.0,4.0,93,0.00,,---,0.09,VWS V14.01,2013-02-14 00:32:00,
2013-02-13 19:37:00,48.3,46.4,29.74,WNW,284,9.0,9.0,93,0.00,,---,0.09,VWS V14.01,2013-02-14 00:37:00,
2013-02-13 19:42:00,48.3,46.4,29.75,WSW,250,7.0,7.0,93,0.00,,---,0.09,VWS V14.01,2013-02-14 00:42:00,
2013-02-13 19:47:00,48.3,46.4,29.75,West,281,4.0,6.0,93,0.00,,---,0.09,VWS V14.01,2013-02-14 00:47:00,
2013-02-13 19:52:00,48.2,46.3,29.75,WNW,286,6.0,6.0,93,0.00,,---,0.09,VWS V14.01,2013-02-14 00:52:00,
2013-02-13 19:57:00,48.2,46.3,29.76,WNW,294,6.0,7.0,93,0.00,,---,0.09,VWS V14.01,2013-02-14 00:57:00,
2013-02-13 20:02:00,48.1,46.2,29.76,West,275,4.0,4.0,93,0.00,,---,0.09,VWS V14.01,2013-02-14 01:02:00,
2013-02-13 20:07:00,48.1,46.2,29.76,West,265,6.0,8.0,93,0.00,,---,0.09,VWS V14.01,2013-02-14 01:07:00,
2013-02-13 20:12:00,48.0,46.1,29.76,WNW,294,6.0,6.0,93,0.00,,---,0.09,VWS V14.01,2013-02-14 01:12:00,
2013-02-13 20:17:00,47.9,46.0,29.77,WSW,255,4.0,4.0,93,0.00,,---,0.09,VWS V14.01,2013-02-14 01:17:00,
2013-02-13 20:22:00,47.9,46.3,29.77,West,264,4.0,5.0,94,0.00,,---,0.09,VWS V14.01,2013-02-14 01:22:00,
2013-02-13 20:27:00,47.9,46.3,29.77,WSW,253,6.0,6.0,94,0.00,,---,0.09,VWS V14.01,2013-02-14 01:27:00,
2013-02-13 20:32:00,47.8,46.2,29.77,WSW,249,5.0,5.0,94,0.00,,---,0.09,VWS V14.01,2013-02-14 01:32:00,
2013-02-13 20:37:00,47.8,46.2,29.77,WNW,286,9.0,9.0,94,0.00,,---,0.09,VWS V14.01,2013-02-14 01:37:00,
2013-02-13 20:42:00,47.8,45.9,29.77,WNW,287,8.0,9.0,93,0.00,,---,0.09,VWS V14.01,2013-02-14 01:42:00,
2013-02-13 20:47:00,47.9,46.0,29.78,West,272,5.0,8.0,93,0.00,,---,0.09,VWS V14.01,2013-02-14 01:47:00,
2013-02-13 20:52:00,47.9,46.0,29.78,WSW,250,4.0,7.0,93,0.00,,---,0.09,VWS V14.01,2013-02-14 01:52:00,
2013-02-13 20:57:00,47.9,46.0,29.78,WNW,287,4.0,6.0,93,0.00,,---,0.09,VWS V14.01,2013-02-14 01:57:00,
2013-02-13 21:02:00,47.9,45.7,29.78,West,272,6.0,6.0,92,0.00,,---,0.09,VWS V14.01,2013-02-14 02:02:00,
2013-02-13 21:07:00,47.9,45.7,29.79,West,279,4.0,4.0,92,0.00,,---,0.09,VWS V14.01,2013-02-14 02:07:00,
2013-02-13 21:12:00,47.9,45.7,29.79,West,263,11.0,11.0,92,0.00,,---,0.09,VWS V14.01,2013-02-14 02:12:00,
2013-02-13 21:17:00,47.9,45.7,29.80,West,267,5.0,6.0,92,0.00,,---,0.09,VWS V14.01,2013-02-14 02:17:00,
2013-02-13 21:22:00,47.8,45.6,29.80,West,279,3.0,3.0,92,0.00,,---,0.09,VWS V14.01,2013-02-14 02:22:00,
2013-02-13 21:27:00,47.7,45.5,29.80,West,280,5.0,8.0,92,0.00,,---,0.09,VWS V14.01,2013-02-14 02:27:00,
2013-02-13 21:32:00,47.7,45.5,29.80,West,281,7.0,7.0,92,0.00,,---,0.09,VWS V14.01,2013-02-14 02:32:00,
2013-02-13 21:37:00,47.6,45.4,29.81,West,269,3.0,3.0,92,0.00,,---,0.09,VWS V14.01,2013-02-14 02:37:00,
2013-02-13 21:42:00,47.5,45.6,29.81,West,263,7.0,10.0,93,0.00,,---,0.09,VWS V14.01,2013-02-14 02:42:00,
2013-02-13 21:47:00,47.4,45.2,29.81,West,275,2.0,4.0,92,0.00,,---,0.09,VWS V14.01,2013-02-14 02:47:00,
2013-02-13 21:52:00,47.3,45.4,29.81,West,280,5.0,10.0,93,0.00,,---,0.09,VWS V14.01,2013-02-14 02:52:00,
2013-02-13 21:57:00,47.4,45.2,29.81,West,264,5.0,9.0,92,0.00,,---,0.09,VWS V14.01,2013-02-14 02:57:00,
2013-02-13 22:02:00,47.5,45.3,29.82,WNW,300,3.0,6.0,92,0.00,,---,0.09,VWS V14.01,2013-02-14 03:02:00,
2013-02-13 22:07:00,47.6,45.1,29.82,WNW,300,4.0,10.0,91,0.00,,---,0.09,VWS V14.01,2013-02-14 03:07:00,
2013-02-13 22:12:00,47.6,45.1,29.82,WNW,287,4.0,12.0,91,0.00,,---,0.09,VWS V14.01,2013-02-14 03:12:00,
2013-02-13 22:17:00,47.6,45.1,29.82,WNW,295,4.0,6.0,91,0.00,,---,0.09,VWS V14.01,2013-02-14 03:17:00,
2013-02-13 22:22:00,47.6,44.8,29.82,NW,309,4.0,8.0,90,0.00,,---,0.09,VWS V14.01,2013-02-14 03:22:00,
2013-02-13 22:27:00,47.5,44.7,29.83,NW,310,2.0,6.0,90,0.00,,---,0.09,VWS V14.01,2013-02-14 03:27:00,
2013-02-13 22:32:00,47.4,44.6,29.83,West,261,7.0,8.0,90,0.00,,---,0.09,VWS V14.01,2013-02-14 03:32:00,
2013-02-13 22:37:00,47.3,44.2,29.83,NW,321,2.0,9.0,89,0.00,,---,0.09,VWS V14.01,2013-02-14 03:37:00,
2013-02-13 22:42:00,47.2,44.1,29.84,WNW,287,8.0,9.0,89,0.00,,---,0.09,VWS V14.01,2013-02-14 03:42:00,
2013-02-13 22:47:00,47.2,43.5,29.84,West,275,2.0,5.0,87,0.00,,---,0.09,VWS V14.01,2013-02-14 03:47:00,
2013-02-13 22:52:00,47.2,43.5,29.84,West,259,5.0,5.0,87,0.00,,---,0.09,VWS V14.01,2013-02-14 03:52:00,
2013-02-13 22:57:00,47.0,43.0,29.85,SE,128,3.0,6.0,86,0.00,,---,0.09,VWS V14.01,2013-02-14 03:57:00,
2013-02-13 23:02:00,46.8,42.8,29.85,NNW,334,3.0,4.0,86,0.00,,---,0.09,VWS V14.01,2013-02-14 04:02:00,
2013-02-13 23:07:00,46.7,42.4,29.85,NW,319,1.0,4.0,85,0.00,,---,0.09,VWS V14.01,2013-02-14 04:07:00,
2013-02-13 23:12:00,46.4,41.8,29.85,NW,320,4.0,8.0,84,0.00,,---,0.09,VWS V14.01,2013-02-14 04:12:00,
2013-02-13 23:17:00,46.1,40.6,29.86,NW,314,5.0,7.0,81,0.00,,---,0.09,VWS V14.01,2013-02-14 04:17:00,
2013-02-13 23:22:00,46.0,39.9,29.86,NNW,340,3.0,5.0,79,0.00,,---,0.09,VWS V14.01,2013-02-14 04:22:00,
2013-02-13 23:27:00,45.7,39.2,29.86,NW,319,2.0,4.0,78,0.00,,---,0.09,VWS V14.01,2013-02-14 04:27:00,
2013-02-13 23:32:00,45.4,39.3,29.86,West,268,2.0,3.0,79,0.00,,---,0.09,VWS V14.01,2013-02-14 04:32:00,
2013-02-13 23:36:00,45.0,38.9,29.86,North,350,8.0,8.0,79,0.00,,---,0.09,VWS V14.01,2013-02-14 04:36:00,
2013-02-13 23:41:00,44.8,38.7,29.87,NW,319,3.0,3.0,79,0.00,,---,0.09,VWS V14.01,2013-02-14 04:41:00,
2013-02-13 23:46:00,44.6,38.5,29.87,WNW,303,3.0,3.0,79,0.00,,---,0.09,VWS V14.01,2013-02-14 04:46:00,
2013-02-13 23:51:00,44.4,38.3,29.87,NNW,334,2.0,2.0,79,0.00,,---,0.09,VWS V14.01,2013-02-14 04:51:00,
2013-02-13 23:56:00,44.3,38.2,29.87,NNE,20,4.0,6.0,79,0.00,,---,0.09,VWS V14.01,2013-02-14 04:56:00,